Vorticity
11 12 13 10 8 12 13 3 4 3 3 3 1 0 3 -1 -0 -3 -0 -1 2 2 7 6 2 6 5 4 7 6 6 7 7 7 8 8 8 6 4 5 5 5 6 7 5 4 6 10 5
4 5 8 13 12 10 3 6 3 4 1 2 2 2 -4 -2 -0 2 4 5 9 12 9 7 9 3 5 5 7 7 5 5 6 6 8 10 10 8 6 5 6 5 4 5 7 6 6 7 10
9 8 8 7 8 8 4 11 1 5 -3 4 3 0 2 1 8 1 -3 -10 -9 8 9 9 8 9 6 7 7 5 5 6 6 5 7 8 8 8 8 7 6 6 7 5 6 6 6 6 5
6 6 10 11 6 5 3 9 8 0 8 3 2 0 -1 -5 -5 -2 1 -0 9 10 7 7 9 7 6 7 5 5 6 6 4 5 6 6 8 8 7 7 7 8 7 8 6 8 7 5 5
5 7 7 7 10 5 5 6 10 8 -5 -1 4 3 -0 2 2 6 9 16 6 8 6 7 7 7 5 5 5 6 7 5 6 6 6 7 6 9 8 8 8 7 6 6 7 6 5 7 7
6 5 8 9 2 3 7 8 6 6 5 -2 -1 1 3 4 6 5 9 8 8 10 7 7 6 6 5 5 6 7 6 6 5 5 6 6 8 8 7 6 6 8 8 6 5 4 6 7 6
10 9 10 7 6 6 6 8 10 11 8 8 4 1 3 7 3 11 16 11 9 9 11 8 6 7 6 6 6 6 6 5 5 4 6 4 5 7 8 8 9 7 4 4 5 6 6 5 6
7 8 7 6 10 14 11 10 5 4 6 6 6 -1 3 3 9 7 14 11 11 10 6 4 5 6 7 7 7 6 5 4 4 6 4 6 8 7 6 7 9 9 11 10 7 5 3 4 4
6 6 3 4 1 1 6 4 3 4 1 6 7 6 7 8 0 4 10 11 11 8 7 7 6 6 5 5 5 5 5 5 6 5 5 7 7 6 5 7 8 6 8 9 10 10 8 7 6
5 2 2 5 3 0 2 3 4 3 1 3 8 9 7 6 8 7 8 5 7 8 6 6 6 5 4 3 3 4 5 5 5 5 8 8 7 5 4 4 3 3 5 7 9 9 10 10 9
23 19 19 17 14 16 18 19 13 8 9 10 7 6 6 4 7 7 6 6 5 5 7 7 6 5 5 5 5 6 6 7 6 7 5 7 5 5 4 4 7 10 10 7 7 7 8 9 10
10 10 12 12 10 10 11 10 11 10 8 9 9 9 10 10 10 8 9 8 7 6 5 5 5 4 5 6 6 6 5 6 6 7 7 7 6 5 4 9 8 8 8 3 2 3 6 7 4
9 12 7 5 4 3 5 5 7 7 9 8 7 8 9 11 10 9 10 8 6 6 5 6 5 5 5 5 4 4 4 4 4 6 7 6 6 7 4 7 3 4 5 4 2 8 9 7 9
5 -1 3 9 6 5 5 5 7 6 7 5 5 7 8 8 7 8 8 7 7 9 8 7 7 6 6 5 6 6 5 6 7 7 8 7 8 8 5 7 3 3 4 5 4 6 2 4 5
4 2 5 6 1 2 6 4 9 5 4 7 5 2 4 4 3 4 6 6 8 10 8 9 9 8 8 7 7 7 6 7 7 8 8 10 8 8 7 5 4 2 3 6 4 6 4 4 4
3 4 5 7 5 6 3 6 6 5 5 4 4 3 6 7 8 8 6 6 8 9 8 7 6 5 6 7 8 9 9 8 8 9 8 7 7 8 8 7 6 5 3 3 5 2 5 8 8
7 6 6 7 5 6 7 4 4 5 4 4 4 7 9 7 7 5 5 5 4 4 4 5 4 4 5 6 5 4 4 5 6 6 7 8 8 8 8 9 7 8 8 5 5 3 2 5 6
5 6 6 7 5 5 4 4 4 4 5 5 6 9 7 4 3 3 5 6 7 8 7 8 9 11 9 7 8 9 8 7 7 6 5 5 6 6 7 9 9 7 6 7 8 7 4 4 4
6 5 4 5 3 5 5 6 5 4 5 5 5 4 5 6 5 4 8 8 7 5 7 5 3 1 3 1 -3 1 9 8 9 10 8 6 6 7 8 8 8 9 9 9 7 8 6 8 6
1 3 5 5 6 6 6 5 5 4 4 4 4 5 4 3 4 6 5 6 7 10 10 8 5 6 7 7 9 15 5 9 12 7 6 7 8 8 9 6 6 8 9 9 9 8 8 7 8
6 7 8 8 7 7 7 4 5 5 6 6 5 4 3 4 5 6 9 11 11 9 9 7 6 8 9 10 5 3 10 17 5 -1 2 9 7 5 3 7 8 5 4 4 7 9 11 8 6
11 9 7 5 5 4 4 2 7 7 7 5 4 6 6 6 7 10 8 9 10 9 9 7 9 8 9 23 27 20 12 3 9 6 4 7 -2 0 11 13 14 14 8 6 7 10 7 3 5
5 7 5 4 4 3 7 7 10 8 5 6 8 10 13 10 9 11 12 12 12 11 8 11 7 4 7 7 4 5 9 -16 -0 4 15 -1 15 22 29 15 16 11 6 16 2 13 15 10 8
6 7 8 8 10 8 8 9 9 5 8 11 16 16 15 16 16 14 11 9 5 4 6 6 6 3 1 0 12 12 10 18 18 12 20 15 14 13 20 6 4 10 14 14 12 20 13 16 22
10 12 11 9 7 7 6 7 5 9 12 12 11 13 14 13 12 8 8 10 9 11 6 6 13 18 10 5 9 28 18 11 10 15 10 9 14 10 13 15 15 20 18 14 15 12 16 17 15
9 7 3 7 6 5 7 11 15 9 12 13 12 13 10 6 9 12 9 12 10 11 9 -4 -4 3 6 14 22 16 56 14 17 6 -1 11 4 8 12 14 9 6 9 6 10 8 7 7 10
7 6 13 12 10 9 6 9 6 11 14 10 9 5 10 10 11 10 9 12 9 8 10 8 2 6 23 23 20 16 10 2 8 13 14 21 10 23 12 11 18 16 15 16 17 13 11 11 10
12 11 14 12 13 11 7 7 12 14 9 10 13 10 10 8 9 10 8 7 9 14 15 23 10 17 19 5 6 17 17 19 10 -3 13 14 7 18 18 12 10 10 10 10 11 10 9 9 8
16 9 5 5 5 10 14 9 14 8 16 5 10 11 9 6 3 5 5 7 6 11 5 4 11 17 17 3 1 24 9 3 -1 12 18 19 21 19 17 8 6 7 10 14 18 23 29 31 29
1 2 3 7 8 8 9 10 12 14 3 9 10 10 7 6 7 6 6 16 9 11 25 26 19 13 16 11 15 15 5 8 6 25 26 10 1 7 16 20 18 18 22 26 28 25 25 25 26
Height
5857 5857 5858 5858 5861 5856 5853 5853 5855 5854 5854 5854 5854 5855 5855 5855 5855 5857 5854 5853 5853 5852 5851 5850 5849 5847 5846 5845 5844 5841 5840 5838 5836 5834 5833 5831 5829 5828 5827 5825 5823 5822 5822 5821 5820 5819 5818 5818 5818
5853 5853 5855 5855 5856 5850 5851 5851 5851 5852 5851 5852 5852 5853 5853 5853 5853 5853 5853 5851 5849 5848 5847 5846 5844 5843 5842 5841 5840 5839 5837 5835 5833 5830 5829 5828 5826 5825 5823 5822 5821 5820 5819 5819 5819 5818 5817 5816 5815
5849 5850 5852 5852 5850 5844 5846 5848 5849 5849 5849 5849 5849 5850 5850 5849 5849 5848 5847 5847 5845 5843 5843 5842 5840 5839 5838 5838 5837 5835 5833 5831 5828 5827 5826 5825 5824 5822 5821 5820 5818 5817 5817 5816 5816 5815 5814 5813 5812
5846 5848 5849 5848 5844 5841 5842 5844 5843 5846 5846 5847 5848 5848 5847 5846 5844 5842 5842 5842 5841 5840 5838 5837 5836 5835 5833 5833 5832 5831 5830 5826 5824 5823 5823 5823 5821 5819 5818 5817 5815 5814 5814 5813 5812 5812 5811 5809 5809
5842 5844 5844 5843 5841 5839 5840 5837 5842 5844 5845 5846 5846 5847 5846 5843 5840 5838 5837 5836 5835 5834 5833 5832 5831 5830 5829 5829 5828 5826 5825 5823 5821 5820 5819 5819 5818 5816 5815 5814 5813 5812 5811 5810 5809 5807 5807 5807 5806
5839 5839 5839 5838 5835 5836 5835 5835 5837 5838 5840 5842 5842 5841 5841 5840 5836 5834 5832 5831 5829 5828 5827 5826 5826 5826 5824 5823 5822 5821 5820 5819 5818 5817 5815 5814 5813 5812 5812 5811 5810 5809 5808 5806 5805 5804 5803 5802 5802
5835 5834 5833 5833 5834 5832 5832 5833 5835 5836 5837 5837 5837 5837 5836 5835 5833 5831 5828 5826 5825 5824 5823 5821 5821 5820 5819 5818 5817 5816 5816 5814 5813 5812 5811 5810 5809 5808 5808 5807 5806 5804 5803 5802 5801 5800 5799 5797 5796
5831 5830 5829 5830 5830 5830 5830 5830 5830 5831 5833 5833 5831 5831 5830 5829 5828 5827 5825 5823 5822 5820 5819 5817 5816 5815 5814 5813 5812 5812 5811 5809 5808 5808 5807 5806 5804 5803 5802 5802 5801 5798 5797 5796 5795 5795 5794 5793 5792
5826 5826 5826 5827 5828 5828 5826 5827 5828 5829 5828 5827 5826 5824 5823 5823 5822 5820 5819 5817 5816 5815 5814 5812 5811 5810 5808 5807 5807 5807 5805 5805 5804 5803 5802 5800 5799 5798 5797 5796 5795 5793 5792 5790 5789 5789 5788 5788 5787
5821 5822 5821 5823 5824 5823 5823 5823 5825 5826 5823 5821 5819 5818 5817 5816 5816 5814 5811 5810 5810 5809 5808 5806 5805 5804 5802 5801 5800 5800 5800 5799 5798 5797 5797 5795 5794 5792 5790 5789 5788 5787 5785 5784 5784 5783 5782 5782 5781
5815 5816 5818 5817 5817 5818 5817 5819 5820 5819 5817 5815 5814 5812 5811 5810 5809 5808 5806 5804 5802 5801 5800 5799 5798 5797 5797 5797 5796 5796 5795 5794 5792 5790 5788 5787 5786 5785 5784 5782 5781 5780 5779 5777 5777 5777 5776 5776 5775
5813 5812 5811 5811 5811 5810 5812 5812 5814 5814 5813 5812 5810 5809 5808 5807 5806 5804 5801 5797 5795 5794 5794 5793 5793 5792 5791 5790 5790 5789 5788 5787 5785 5784 5782 5780 5779 5777 5776 5775 5774 5773 5773 5772 5771 5770 5770 5770 5769
5808 5807 5806 5806 5807 5805 5805 5806 5810 5811 5810 5808 5807 5805 5803 5802 5801 5798 5795 5794 5792 5790 5788 5787 5786 5785 5784 5783 5782 5781 5780 5779 5777 5776 5776 5774 5772 5771 5770 5768 5766 5765 5765 5764 5764 5763 5763 5763 5762
5804 5802 5801 5803 5802 5800 5799 5798 5801 5805 5805 5803 5802 5801 5799 5796 5794 5793 5791 5788 5787 5784 5782 5781 5779 5778 5777 5776 5774 5773 5771 5770 5769 5768 5766 5765 5764 5762 5760 5760 5759 5758 5757 5757 5756 5755 5755 5755 5754
5798 5799 5797 5796 5794 5792 5792 5793 5795 5792 5793 5796 5795 5794 5792 5789 5787 5784 5782 5782 5781 5779 5776 5774 5773 5771 5768 5766 5765 5764 5761 5760 5759 5756 5755 5753 5752 5752 5751 5750 5750 5749 5748 5748 5748 5748 5747 5746 5745
5793 5793 5793 5790 5791 5790 5788 5792 5790 5787 5786 5785 5786 5785 5784 5782 5780 5777 5775 5773 5772 5770 5769 5767 5765 5762 5760 5758 5756 5754 5753 5750 5747 5745 5744 5742 5742 5741 5740 5740 5739 5738 5738 5738 5738 5738 5737 5737 5736
5787 5786 5787 5788 5784 5784 5783 5784 5784 5783 5781 5780 5779 5778 5776 5773 5771 5769 5768 5765 5763 5760 5759 5758 5754 5751 5749 5748 5746 5744 5741 5739 5737 5735 5733 5732 5730 5729 5728 5727 5727 5726 5725 5725 5725 5725 5725 5725 5725
5779 5779 5779 5781 5780 5776 5776 5775 5776 5776 5774 5773 5772 5771 5769 5766 5764 5762 5761 5758 5754 5752 5750 5747 5743 5740 5737 5737 5736 5734 5732 5729 5727 5725 5722 5719 5717 5716 5716 5714 5713 5712 5713 5713 5712 5712 5711 5712 5712
5772 5770 5770 5771 5770 5769 5769 5768 5767 5765 5765 5766 5764 5760 5757 5756 5754 5753 5751 5749 5745 5742 5739 5736 5732 5729 5726 5725 5725 5723 5721 5717 5714 5711 5709 5706 5704 5703 5703 5702 5701 5700 5698 5698 5698 5698 5699 5699 5699
5763 5761 5761 5760 5760 5759 5759 5760 5758 5755 5754 5752 5749 5746 5745 5743 5741 5741 5740 5738 5735 5733 5729 5725 5721 5717 5715 5713 5712 5710 5707 5704 5702 5700 5697 5695 5692 5690 5688 5688 5687 5687 5686 5684 5684 5683 5683 5683 5684
5753 5751 5749 5750 5750 5750 5749 5749 5747 5744 5742 5740 5737 5735 5732 5730 5729 5728 5728 5727 5724 5721 5717 5712 5708 5704 5704 5702 5701 5698 5695 5692 5690 5688 5685 5681 5678 5676 5674 5673 5672 5672 5670 5670 5668 5668 5667 5667 5666
5745 5742 5738 5737 5738 5740 5739 5736 5740 5736 5734 5732 5728 5725 5722 5719 5719 5718 5716 5715 5712 5709 5704 5697 5696 5696 5693 5690 5687 5685 5683 5680 5677 5675 5673 5668 5664 5661 5660 5658 5656 5656 5654 5654 5652 5651 5651 5650 5650
5734 5732 5730 5728 5726 5725 5725 5726 5731 5725 5724 5721 5719 5717 5715 5712 5710 5708 5707 5704 5701 5696 5689 5689 5687 5685 5681 5678 5676 5673 5669 5665 5663 5661 5660 5655 5650 5647 5644 5643 5642 5640 5639 5637 5636 5634 5633 5632 5631
5719 5718 5717 5717 5715 5713 5716 5715 5716 5717 5713 5709 5708 5707 5706 5704 5702 5700 5696 5692 5688 5682 5681 5677 5675 5674 5670 5666 5662 5660 5656 5654 5650 5648 5646 5642 5638 5634 5631 5628 5626 5624 5623 5622 5620 5618 5616 5615 5614
5707 5708 5706 5704 5702 5703 5703 5702 5703 5702 5700 5697 5695 5695 5694 5693 5690 5687 5684 5679 5676 5674 5670 5667 5664 5662 5659 5656 5652 5649 5645 5642 5638 5636 5634 5630 5625 5622 5619 5616 5613 5611 5609 5607 5605 5603 5601 5599 5598
5695 5695 5694 5693 5692 5690 5689 5688 5690 5689 5688 5687 5684 5683 5681 5679 5677 5675 5672 5669 5665 5662 5659 5655 5653 5652 5648 5643 5640 5638 5633 5631 5627 5624 5621 5619 5614 5611 5607 5604 5601 5598 5596 5594 5591 5588 5586 5584 5582
5687 5684 5687 5681 5680 5678 5678 5678 5678 5677 5678 5677 5675 5672 5670 5668 5666 5663 5661 5659 5655 5652 5649 5646 5643 5642 5638 5633 5628 5626 5622 5620 5617 5614 5611 5608 5604 5601 5596 5593 5589 5585 5582 5580 5576 5574 5571 5569 5567
5673 5676 5672 5669 5668 5666 5667 5667 5666 5669 5668 5667 5666 5663 5660 5657 5655 5652 5649 5647 5644 5641 5638 5635 5633 5631 5628 5624 5621 5616 5613 5611 5609 5604 5600 5597 5594 5590 5586 5582 5577 5573 5570 5566 5563 5560 5557 5554 5550
5662 5661 5659 5659 5658 5655 5656 5658 5657 5657 5656 5655 5655 5652 5650 5647 5645 5642 5639 5637 5634 5631 5628 5625 5622 5621 5618 5616 5613 5608 5605 5602 5600 5596 5592 5588 5584 5580 5576 5571 5567 5562 5558 5553 5548 5544 5540 5537 5533
5650 5650 5648 5645 5647 5647 5647 5650 5650 5647 5645 5645 5643 5642 5640 5638 5636 5633 5630 5627 5624 5621 5618 5614 5613 5611 5609 5607 5604 5600 5598 5595 5592 5588 5584 5581 5577 5572 5567 5563 5557 5551 5545 5540 5537 5533 5529 5526 5522